Location: Anuling
(14.1239°N, 120.8922°E)
Time: 12:10:00
(UTC+00:00)

Cosmos 2218 Rocket - Pass Details

Date: 10 April 2026
Orbit: 955 x 1005 km, 82.9° (Epoch: 11 May)

Event Time Altitude Azimuth Distance (km) Brightness Sun altitude
Exits shadow 12:41:45 10° 9° (N) 2,666 6.4 -36.6°
Drops below altitude 10° 12:41:54 10° 9° (N) 2,718 6.4 -36.6°
Sets 12:44:17 0° 7° (N) 3,626 7.1 -37.1°
